Location: Omaha
(41.2590°N, 95.9380°W)
Time: 10:07:20
(UTC-06:00)

Envisat - Pass Details

Date: 09 October 2017
Orbit: 764 x 766 km, 98.2° (Epoch: 14 December)

Event Time Altitude Azimuth Distance (km) Brightness Sun altitude
Exits shadow 20:44:47 49° 75° (ENE) 990 3.1 -22.0°
Maximum altitude 20:44:52 49° 72° (ENE) 989 3.2 -22.0°
Drops below altitude 10° 20:49:45 10° 358° (N) 2,313 5.6 -22.9°
Sets 20:52:08 0° 353° (N) 3,244 6.5 -23.3°
